Location: Haliburton Scout Reserve
(45.0900°N, 78.3200°W)
Time: 14:51:50
(UTC-04:00)

Courier 1B Rocket - Pass Details

Date: 06 February 2023
Orbit: 920 x 1202 km, 28.2° (Epoch: 27 March)

Event Time Altitude Azimuth Distance (km) Brightness Sun altitude
Rises 18:30:13 0° 244° (WSW) 3,567 9.6 -11.4°
Reaches altitude 10° 18:34:08 10° 221° (SW) 2,605 8.0 -12.1°
Maximum altitude 18:37:17 14° 190° (S) 2,303 7.2 -12.6°
Drops below altitude 10° 18:40:26 10° 159° (SSE) 2,607 7.1 -13.2°
Sets 18:44:22 0° 136° (SE) 3,572 7.6 -13.8°
Enters shadow 18:44:24 - 136° (SE) 3,581 7.6 -13.8°
